Weather History for KNQI - April, 2013

Change the Weather History Date:

Thursday, April 11, 2013

  Actual Average Record
Temperature  
Mean Temperature 62 °F -  
Max Temperature 75 °F 79 °F 93 °F (2011)
Min Temperature 50 °F 61 °F 50 °F (2013)
Degree Days  
Heating Degree Days 2    
Growing Degree Days 12 (Base 50)    
Moisture  
Dew Point 42 °F    
Average Humidity 46    
Maximum Humidity 81    
Minimum Humidity 24    
Precipitation  
Precipitation 0.36 in - - ()
Sea Level Pressure  
Sea Level Pressure 29.87 in    
Wind  
Wind Speed 14 mph (North)    
Max Wind Speed 21 mph    
Max Gust Speed 26 mph    
Visibility 10 miles    
Events Rain , Thunderstorm    
Averages and records for this station are not official NWS values.
T = Trace of Precipitation, MM = Missing Value Source: NWS Daily Summary

Daily Weather History Graph

Daily Weather History Graph

Search for Another Location

Airport or City:

Trip Planner

Search our weather history database for the weather conditions in past years. The results will help you decide how hot, cold, wet, or windy it might be!

Date:

Astronomy

Apr. 11, 2013 Rise Set
Actual Time 7:10 AM CDT 7:54 PM CDT
Civil Twilight 6:46 AM CDT 8:17 PM CDT
Nautical Twilight 6:18 AM CDT 8:45 PM CDT
Astronomical Twilight 5:50 AM CDT 9:14 PM CDT
Moon 7:50 AM CDT (4/11) 9:19 PM CDT (4/11)
Length of Visible Light 13h 31m
Length of Day
12h 43m
New Moon, 2% of the Moon is Illuminated
Apr 11
New Moon
Apr 18
First Quarter
Apr 25
Full
May 2
Last Quarter
May 9
New

Hourly Weather History & Observations

Time (CDT) Temp. Dew Point Humidity Pressure Visibility Wind Dir Wind Speed Gust Speed Precip Events Conditions
12:56 AM - - N/A% 29.85 in 10.0 mi North 18.4 mph 26.5 mph 0.00 in   Overcast
1:03 AM - - N/A% 29.84 in 10.0 mi North 18.4 mph 26.5 mph N/A   Overcast
1:56 AM - - N/A% 29.83 in 10.0 mi North 13.8 mph 24.2 mph N/A   Overcast
2:36 AM - - N/A% 29.87 in 10.0 mi NNW 18.4 mph 26.5 mph 0.00 in Rain , Thunderstorm Light Thunderstorms and Rain
2:51 AM - - N/A% 29.89 in 10.0 mi NNW 15.0 mph 24.2 mph 0.00 in Rain Light Rain
2:56 AM - - N/A% 29.89 in 10.0 mi NNW 20.7 mph 24.2 mph 0.00 in Rain Light Rain
3:48 AM - - N/A% 29.88 in 2.0 mi North 13.8 mph - 0.28 in Rain Heavy Rain
3:56 AM - - N/A% 29.88 in 4.0 mi North 9.2 mph - 0.35 in Rain Heavy Rain
4:56 AM - - N/A% 29.88 in 10.0 mi North 12.7 mph - 0.01 in   Overcast
5:21 AM - - N/A% 29.88 in 10.0 mi NNE 16.1 mph 23.0 mph N/A Thunderstorm Thunderstorm
5:36 AM - - N/A% 29.88 in 10.0 mi North 13.8 mph 21.9 mph N/A   Mostly Cloudy
5:56 AM - - N/A% 29.88 in 10.0 mi NNE 13.8 mph - N/A   Mostly Cloudy
6:56 AM 50.7 °F 45.0 °F 81% 29.88 in 10.0 mi NE 9.2 mph - N/A   Mostly Cloudy
7:56 AM 53.4 °F 45.7 °F 75% 29.90 in 10.0 mi NNE 10.4 mph - N/A   Scattered Clouds
8:56 AM 57.7 °F 38.1 °F 48% 29.95 in 10.0 mi North 13.8 mph - N/A   Partly Cloudy
9:56 AM 59.4 °F 39.7 °F 48% 29.97 in 10.0 mi NNW 15.0 mph 23.0 mph N/A   Partly Cloudy
10:56 AM 57.7 °F 36.1 °F 44% 29.98 in 10.0 mi North 13.8 mph 20.7 mph N/A   Clear
11:56 AM 66.4 °F 39.0 °F 37% 29.96 in 10.0 mi North 12.7 mph 18.4 mph N/A   Clear
12:56 PM 65.7 °F 37.8 °F 36% 29.92 in 10.0 mi North 8.1 mph - N/A   Clear
1:56 PM 68.0 °F 43.0 °F 40% 29.90 in 10.0 mi Variable 4.6 mph - N/A   Clear
2:56 PM 73.2 °F 40.3 °F 30% 29.85 in 10.0 mi NNW 9.2 mph - N/A   Clear
3:56 PM 74.7 °F 38.8 °F 27% 29.81 in 10.0 mi Variable 6.9 mph - N/A   Clear
4:56 PM 75.4 °F 38.5 °F 26% 29.78 in 10.0 mi East 5.8 mph - N/A   Clear
5:56 PM 75.0 °F 36.1 °F 24% 29.77 in 10.0 mi Variable 5.8 mph - N/A   Clear
6:56 PM 71.8 °F 43.5 °F 36% 29.78 in 10.0 mi SE 12.7 mph - N/A   Clear
7:56 PM 67.5 °F 44.6 °F 44% 29.79 in 10.0 mi SE 12.7 mph - N/A   Clear
8:56 PM 63.9 °F 46.2 °F 53% 29.81 in 10.0 mi SE 9.2 mph - N/A   Clear
9:56 PM 62.1 °F 46.6 °F 57% 29.84 in 10.0 mi South 5.8 mph - N/A   Clear
10:56 PM 60.6 °F 46.0 °F 59% 29.88 in 10.0 mi SSW 5.8 mph - N/A   Clear
11:56 PM 60.6 °F 46.4 °F 59% 29.89 in 10.0 mi South 4.6 mph - N/A   Clear